Time,TemperatureF,DewpointF,PressureIn,WindDirection,WindDirectionDegrees,WindSpeedMPH,WindSpeedGustMPH,Humidity,HourlyPrecipIn,Conditions,Clouds,dailyrainin,SoftwareType,DateUTC
2013-03-03 00:40:00,20.8,-5.7,29.91,WNW,288,0.0,0.0,30,0.00,,SKC,0.00,VWS V14.01,2013-03-03 05:40:00,
2013-03-03 01:00:00,20.7,-8.0,29.91,West,276,0.0,0.0,27,0.00,,SKC,0.00,VWS V14.01,2013-03-03 06:00:00,
2013-03-03 01:20:00,20.3,-8.3,29.91,West,271,0.0,0.0,27,0.00,,SKC,0.00,VWS V14.01,2013-03-03 06:20:00,
2013-03-03 01:40:00,20.1,-8.5,29.91,WNW,283,0.0,0.0,27,0.00,,SKC,0.00,VWS V14.01,2013-03-03 06:40:00,
2013-03-03 02:00:00,19.9,-10.2,29.91,West,276,0.0,0.0,25,0.00,,SKC,0.00,VWS V14.01,2013-03-03 07:00:00,
2013-03-03 02:20:00,19.6,-10.5,29.91,West,279,0.0,0.0,25,0.00,,SKC,0.00,VWS V14.01,2013-03-03 07:20:00,
2013-03-03 02:40:00,19.6,-9.0,29.91,SSW,209,0.0,0.0,27,0.00,,SKC,0.00,VWS V14.01,2013-03-03 07:40:00,
2013-03-03 03:00:00,19.6,-9.0,29.91,West,267,0.0,0.0,27,0.00,,SKC,0.00,VWS V14.01,2013-03-03 08:00:00,
2013-03-03 03:20:00,19.6,-10.5,29.91,West,272,0.0,0.0,25,0.00,,SKC,0.00,VWS V14.01,2013-03-03 08:20:00,
2013-03-03 03:40:00,19.6,-10.5,29.88,WNW,286,0.0,0.0,25,0.00,,SKC,0.00,VWS V14.01,2013-03-03 08:40:00,
2013-03-03 04:00:00,19.4,-10.7,29.88,NW,304,0.0,0.0,25,0.00,,SKC,0.00,VWS V14.01,2013-03-03 09:00:00,
2013-03-03 04:20:00,19.4,-10.7,29.91,SW,230,0.0,0.0,25,0.00,,SKC,0.00,VWS V14.01,2013-03-03 09:20:00,
2013-03-03 04:40:00,19.4,-10.7,29.91,WNW,282,0.0,0.0,25,0.00,,SKC,0.00,VWS V14.01,2013-03-03 09:40:00,
2013-03-03 05:00:00,19.0,-11.0,29.91,NNW,329,0.0,0.0,25,0.00,,SKC,0.00,VWS V14.01,2013-03-03 10:00:00,
2013-03-03 05:20:00,18.9,-11.1,29.88,North,353,0.0,0.0,25,0.00,,SKC,0.00,VWS V14.01,2013-03-03 10:20:00,
2013-03-03 05:40:00,18.7,-11.3,29.88,NNW,339,0.0,0.0,25,0.00,,SKC,0.00,VWS V14.01,2013-03-03 10:40:00,
2013-03-03 06:00:00,18.5,-11.4,29.91,WSW,252,0.0,0.0,25,0.00,,SKC,0.00,VWS V14.01,2013-03-03 11:00:00,
2013-03-03 06:20:00,18.3,-11.6,29.91,NW,307,0.0,0.0,25,0.00,,SKC,0.00,VWS V14.01,2013-03-03 11:20:00,
2013-03-03 06:40:00,18.3,-11.6,29.91,WSW,238,0.0,0.0,25,0.00,,SKC,0.00,VWS V14.01,2013-03-03 11:40:00,
2013-03-03 07:00:00,18.3,-11.6,29.91,WNW,286,0.0,0.0,25,0.00,,SKC,0.00,VWS V14.01,2013-03-03 12:00:00,
2013-03-03 07:20:00,18.3,-11.6,29.91,West,269,0.0,0.0,25,0.00,,SKC,0.00,VWS V14.01,2013-03-03 12:20:00,
2013-03-03 07:40:00,19.0,-11.0,29.91,WNW,292,0.0,0.0,25,0.00,,SKC,0.00,VWS V14.01,2013-03-03 12:40:00,
2013-03-03 08:00:00,20.7,-9.6,29.91,West,277,0.0,0.0,25,0.00,,SKC,0.00,VWS V14.01,2013-03-03 13:00:00,
2013-03-03 08:20:00,23.0,-7.6,29.94,South,171,0.0,0.0,25,0.00,,SKC,0.00,VWS V14.01,2013-03-03 13:20:00,
2013-03-03 08:40:00,23.7,-7.8,29.94,WNW,287,0.0,0.0,24,0.00,,SKC,0.00,VWS V14.01,2013-03-03 13:40:00,
2013-03-03 09:00:00,22.6,-7.9,29.94,WNW,285,0.0,0.0,25,0.00,,SKC,0.00,VWS V14.01,2013-03-03 14:00:00,
2013-03-03 09:20:00,23.5,-7.9,29.94,SSW,209,0.0,0.0,24,0.00,,SKC,0.00,VWS V14.01,2013-03-03 14:20:00,
2013-03-03 09:40:00,24.3,-7.3,29.94,WNW,303,0.0,0.0,24,0.00,,SKC,0.00,VWS V14.01,2013-03-03 14:40:00,
2013-03-03 10:00:00,26.8,-6.0,29.94,West,267,0.0,0.0,23,0.00,,SKC,0.00,VWS V14.01,2013-03-03 15:00:00,
2013-03-03 10:20:00,27.5,-5.4,29.94,West,267,0.0,0.0,23,0.00,,SKC,0.00,VWS V14.01,2013-03-03 15:20:00,
2013-03-03 10:40:00,28.0,-5.0,29.94,NW,307,0.0,0.0,23,0.00,,SKC,0.00,VWS V14.01,2013-03-03 15:40:00,
2013-03-03 11:00:00,27.5,-5.4,29.94,West,273,0.0,0.0,23,0.00,,SKC,0.00,VWS V14.01,2013-03-03 16:00:00,
2013-03-03 11:20:00,28.2,-4.8,29.94,West,273,0.0,0.0,23,0.00,,SKC,0.00,VWS V14.01,2013-03-03 16:20:00,
2013-03-03 11:40:00,27.7,-5.3,29.94,West,280,0.0,0.0,23,0.00,,SKC,0.00,VWS V14.01,2013-03-03 16:40:00,
2013-03-03 12:00:00,29.7,-3.6,29.94,West,277,0.0,0.0,23,0.00,,SKC,0.00,VWS V14.01,2013-03-03 17:00:00,
2013-03-03 12:20:00,29.5,-3.7,29.94,NW,311,0.0,0.0,23,0.00,,SKC,0.00,VWS V14.01,2013-03-03 17:20:00,
2013-03-03 12:40:00,28.8,-4.3,29.94,West,266,0.0,0.0,23,0.00,,SKC,0.00,VWS V14.01,2013-03-03 17:40:00,
2013-03-03 13:00:00,28.6,-4.5,29.94,NW,325,0.0,0.0,23,0.00,,SKC,0.00,VWS V14.01,2013-03-03 18:00:00,
2013-03-03 13:20:00,28.6,-4.5,29.94,NW,321,0.0,0.0,23,0.00,,SKC,0.00,VWS V14.01,2013-03-03 18:20:00,
2013-03-03 13:40:00,28.8,-4.3,29.94,WNW,284,0.0,0.0,23,0.00,,SKC,0.00,VWS V14.01,2013-03-03 18:40:00,
2013-03-03 14:00:00,29.1,-4.1,29.94,WNW,292,0.0,0.0,23,0.00,,SKC,0.00,VWS V14.01,2013-03-03 19:00:00,
2013-03-03 14:20:00,31.1,-2.4,29.91,NNW,338,0.0,0.0,23,0.00,,SKC,0.00,VWS V14.01,2013-03-03 19:20:00,
2013-03-03 14:40:00,30.0,-3.3,29.94,WNW,295,0.0,0.0,23,0.00,,SKC,0.00,VWS V14.01,2013-03-03 19:40:00,
2013-03-03 15:00:00,30.0,-3.3,29.91,WNW,301,0.0,0.0,23,0.00,,SKC,0.00,VWS V14.01,2013-03-03 20:00:00,
2013-03-03 15:20:00,29.8,-3.4,29.91,West,271,0.0,0.0,23,0.00,,SKC,0.00,VWS V14.01,2013-03-03 20:20:00,
2013-03-03 15:40:00,29.5,-3.7,29.94,WNW,291,0.0,0.0,23,0.00,,SKC,0.00,VWS V14.01,2013-03-03 20:40:00,
2013-03-03 16:00:00,28.2,-4.8,29.91,North,0,0.0,0.0,23,0.00,,SKC,0.00,VWS V14.01,2013-03-03 21:00:00,
2013-03-03 16:20:00,27.5,-5.4,29.94,WSW,248,0.0,0.0,23,0.00,,SKC,0.00,VWS V14.01,2013-03-03 21:20:00,
2013-03-03 16:40:00,26.4,-5.5,29.91,West,279,0.0,0.0,24,0.00,,SKC,0.00,VWS V14.01,2013-03-03 21:40:00,
2013-03-03 17:00:00,25.5,-6.2,29.94,West,266,0.0,0.0,24,0.00,,SKC,0.00,VWS V14.01,2013-03-03 22:00:00,
2013-03-03 17:20:00,25.2,-6.6,29.94,West,274,0.0,0.0,24,0.00,,SKC,0.00,VWS V14.01,2013-03-03 22:20:00,
2013-03-03 17:40:00,24.4,-7.2,29.94,West,264,0.0,0.0,24,0.00,,SKC,0.00,VWS V14.01,2013-03-03 22:40:00,
2013-03-03 18:00:00,24.3,-7.3,29.94,NW,311,0.0,0.0,24,0.00,,SKC,0.00,VWS V14.01,2013-03-03 23:00:00,
2013-03-03 18:20:00,23.7,-7.8,29.94,West,268,0.0,0.0,24,0.00,,SKC,0.00,VWS V14.01,2013-03-03 23:20:00,
2013-03-03 18:40:00,23.4,-8.1,29.94,West,267,0.0,0.0,24,0.00,,SKC,0.00,VWS V14.01,2013-03-03 23:40:00,
2013-03-03 19:00:00,23.0,-7.6,29.97,WNW,303,0.0,0.0,25,0.00,,SKC,0.00,VWS V14.01,2013-03-04 00:00:00,
2013-03-03 19:20:00,22.6,-7.9,29.97,WNW,288,0.0,0.0,25,0.00,,SKC,0.00,VWS V14.01,2013-03-04 00:20:00,
2013-03-03 19:40:00,22.6,-7.9,29.97,NW,305,0.0,0.0,25,0.00,,SKC,0.00,VWS V14.01,2013-03-04 00:40:00,
2013-03-03 20:00:00,22.6,-7.9,29.97,WNW,297,0.0,0.0,25,0.00,,SKC,0.00,VWS V14.01,2013-03-04 01:00:00,
2013-03-03 20:20:00,22.6,-7.9,29.97,WNW,282,0.0,0.0,25,0.00,,SKC,0.00,VWS V14.01,2013-03-04 01:20:00,
2013-03-03 20:40:00,22.6,-7.9,29.97,NW,304,0.0,0.0,25,0.00,,SKC,0.00,VWS V14.01,2013-03-04 01:40:00,
2013-03-03 21:00:00,22.3,-8.2,29.97,WNW,287,0.0,0.0,25,0.00,,SKC,0.00,VWS V14.01,2013-03-04 02:00:00,
2013-03-03 21:20:00,21.9,-8.5,29.97,West,280,0.0,0.0,25,0.00,,SKC,0.00,VWS V14.01,2013-03-04 02:20:00,
2013-03-03 21:40:00,21.7,-8.6,29.97,WNW,291,0.0,0.0,25,0.00,,SKC,0.00,VWS V14.01,2013-03-04 02:40:00,
2013-03-03 22:00:00,21.4,-9.0,29.97,West,281,0.0,0.0,25,0.00,,SKC,0.00,VWS V14.01,2013-03-04 03:00:00,
2013-03-03 22:20:00,21.4,-9.0,30.00,West,268,0.0,0.0,25,0.00,,SKC,0.00,VWS V14.01,2013-03-04 03:20:00,
2013-03-03 22:40:00,21.9,-8.5,30.00,WSW,256,0.0,0.0,25,0.00,,SKC,0.00,VWS V14.01,2013-03-04 03:40:00,
2013-03-03 23:20:00,21.2,-9.1,29.97,NW,310,0.0,0.0,25,0.00,,SKC,0.00,VWS V14.01,2013-03-04 04:20:00,
2013-03-03 23:40:00,21.0,-9.3,29.97,WNW,303,0.0,0.0,25,0.00,,SKC,0.00,VWS V14.01,2013-03-04 04:40:00,